Flag for U.S.A. Weather past 2 weeks in Eau Claire, Wisconsin, U.S.A.

Now
43 °F

Clear.


Feels Like: 43 °F
Forecast: 46 / 74 °F
Wind: No wind

Location: Eau Claire County Airport

Current Time: May 23, 2015 at 4:17:16 AM

Latest Report: May 23, 2015 at 3:56 AM


Visibility: 10 mi

Pressure: 30.24 "Hg

Humidity: 86%

Dew point: 39 °F

Location of Eau ClaireLocation

Historic Weather in Eau Claire — Graph

°F

Eau Claire temperature yesterday

Maximum temperature yesterday: 72 °F (at 4:56 PM)
Minimum temperature yesterday: 38 °F (at 5:56 AM)
Average temperature yesterday: 57 °F

Past Weeks' High & Low Weather Summary

 TemperatureHumidityPressure
High79 °F (May 16, 4:56 PM)100% (May 15, 6:56 AM)30.47 "Hg (May 15, 6:56 AM)
Low30 °F (May 20, 4:56 AM)23% (May 22, 2:56 PM)29.59 "Hg (May 17, 5:56 PM)
Average54 °F68%30.04 "Hg
* Reported May 8 2:56 AM — May 23 2:56 AM, Eau Claire, Weather by CustomWeather, © 2015

Note: Actual official high and low records may vary slightly from our data, if they occured in-between our weather recording intervals... More about our weather records

Advertising

Eau Claire weather history for previous 24 hours

 ConditionsComfort  
Time TempWeatherWind HumidityBarometerVisibility
2:56 AM
Sat, May 23
43 °FClear.No wind82%30.23 "Hg10 mi
1:56 AM45 °FClear.No wind80%30.22 "Hg10 mi
12:56 AM47 °FClear.No wind77%30.22 "Hg10 mi
11:56 PM
Fri, May 22
47 °FClear.No wind77%30.22 "Hg10 mi
10:56 PM50 °FClear.No wind66%30.22 "Hg10 mi
9:56 PM54 °FClear.No wind57%30.22 "Hg10 mi
8:56 PM60 °FSunny.No wind42%30.20 "Hg10 mi
7:56 PM69 °FSunny.No wind25%30.19 "Hg10 mi
6:56 PM71 °FSunny.No wind23%30.19 "Hg10 mi
5:56 PM71 °FSunny.3 mph25%30.19 "Hg10 mi
4:56 PM72 °FSunny.3 mph23%30.21 "Hg10 mi
3:56 PM70 °FSunny.3 mph23%30.22 "Hg10 mi
2:56 PM70 °FSunny.5 mph23%30.22 "Hg10 mi
1:56 PM69 °FSunny.No wind25%30.22 "Hg10 mi
12:56 PM69 °FSunny.7 mph26%30.22 "Hg10 mi
11:56 AM66 °FSunny.5 mph28%30.23 "Hg10 mi
10:56 AM66 °FSunny.3 mph28%30.21 "Hg10 mi
9:56 AM62 °FSunny.6 mph37%30.21 "Hg10 mi
8:56 AM57 °FRefreshingly cool.6 mph46%30.21 "Hg10 mi
7:56 AM52 °FSunny.6 mph61%30.20 "Hg10 mi
6:56 AM45 °FSunny.5 mph82%30.18 "Hg10 mi
5:56 AM38 °FClear.3 mph93%30.16 "Hg10 mi
4:56 AM39 °FClear.5 mph93%30.14 "Hg7 mi
Weather by CustomWeather, © 2015

See weather overviewHow to use our weather pages